Terug naar catalogus

STARLINK-31661

ActiefCommunicatieVLEO
NORAD 59735·PAYLOAD·🇺🇸 United States

Gelanceerd May 13, 2024 vanaf Cape Canaveral Space Force Station

Loading…

Volgende Passages (komende 24 uur)

TLE

VersSource: CelesTrak SupGP

Epoch: Sep 15, 2026, 02:44 UTC

1 59735C 24090F   26258.11437500 -.00029407  00000+0 -10645-2 0  2587
2 59735  43.0028 186.6832 0001087 281.5208   5.8008 15.27613665    18

Volg STARLINK-31661 in realtime met AllMySat

Download on the App Store